Powrót do katalogu

SITRO-AIS-40

AktywnyNawigacjaSSO
NORAD 61776·PAYLOAD·🇷🇺 Russia
Ta nazwa satelity nie została jeszcze potwierdzona przez oficjalne źródła.

Wystrzelony Nov 4, 2024 z Vostochny Cosmodrome

Loading…

Następne Przeloty (najbliższe 24 godziny)

TLE

ŚwieżeSource: Space-Track

Epoka: Sep 14, 2026, 15:02 UTC

1 61776U 24199AT  26257.62648790  .00084708  00000-0  63604-3 0  9995
2 61776  97.2680 137.2922 0001988 348.7202  11.4017 15.72336626151629

Śledź SITRO-AIS-40 w czasie rzeczywistym z AllMySat

Download on the App Store